Weather in Tretyaki

Russia / Bryansk Oblast     53°02′49″N   33°23′59″E
temp.,
°C
wind,
m/s
gust,
m/s
humid.,
%
clouds,
%
prec.,
mm/h
press.,
hPa
HPBL,
m
14 june, mon
mon1400:00+14wsw01925 0.1 100811
03:00+13sse11955 0.1 101013
06:00+14s12966 0.0 101186
09:00+18s128535 0.0 1013456
12:00+22n01695 0.0 1014897
15:00+24w116211 0.2 10141264
18:00+23wnw21709 0.4 1014955
21:00+18n228550 1.4 101514
15 june, tue
tue1500:00+16n22895 0.0 101511
03:00+15nnw22915 0.0 101511
06:00+16nnw22915 0.0 101552
09:00+20nnw23815 0.0 1015424
12:00+23nw22679 0.0 10141082
15:00+25w226165 0.0 10121456
18:00+23wnw357797 0.6 1011372
21:00+19nnw359132 0.9 101177
16 june, wed
wed1600:00+16nnw38956 0.0 1012154
03:00+15nnw36945 0.0 1012119
06:00+14nnw36914 0.0 1013147
09:00+19n4676100 0.0 1014397
12:00+22nne566565 0.0 10141003
15:00+24n56610 0.0 10141419
18:00+22nne57745 0.2 1015346
21:00+18nne49855 0.3 1017164
17 june, thu
thu1700:00+16ne399099 0.0 1019173
03:00+14ne388339 0.0 1020144
06:00+14ne49854 0.0 1022199
09:00+19ene46715 0.0 1023451
12:00+22ene45560 0.0 10241136
15:00+23ne45500 0.0 10241508
18:00+23e34660 0.0 1024480
21:00+16ese33802 0.0 102544
18 june, fri
fri1800:00+14ese22895 0.0 102720
03:00+12ene22905 0.0 102717
06:00+13e24880 0.0 102893
09:00+19ese35710 0.0 1028461
12:00+22se35580 0.0 10281184
15:00+24se23530 0.0 10271470
18:00+24ese23665 0.0 10271158
21:00+18se33830 0.0 102738